Parsons Landing, Santa Catalina Island Weather observations

Data are for 10 minute period ending at time listed.
 Day   Time   Solar   Ave.   Ave.  Ave.  Vector    Max.   Stn.   Total 
  of    of     Rad.   Air    Rel.  Wind   Wind     Wind   Baro. Precip. 
Year   Day            Temp.  Hum.  Speed  Dir.     Gust   Pres.         
2015   (PST)   W/m2    F      %     mph   deg.      mph    mb.    in.   
------------------------------------------------------------------------
  26   23:00    0.0    56   89.5     6    144.3     9.0    999.0   0.00  
  26   23:10    0.0    57   89.6     6    142.1     8.4    999.0   0.00  
  26   23:20    0.0    57   90.5     5    141.7     8.4    999.0   0.00  
  26   23:30    0.0    57   90.5     5    127.6     7.8    999.0   0.00  
  26   23:40    0.0    57   90.9     5    129.7     6.6    999.0   0.00  
  26   23:50    0.0    56   91.8     5    129.9     6.6    999.0   0.00  
  27    0:00    0.0    57   92.2     5    137.4     8.4    999.0   0.00  
  27    0:10    0.0    57   92.3     6    138.1     8.4    999.0   0.00  
  27    0:20    0.0    57   92.8     5    131.7     7.2    999.0   0.00  
  27    0:30    0.0    57   92.8     6    142.5     8.4    999.0   0.00  
  27    0:40    0.0    56   92.2     5    149.4     7.2    999.0   0.00  
  27    0:50    0.0    57   87.3     5    159.6     7.2    999.0   0.00  
  27    1:00    0.0    57   84.6     5    144.8     6.6    999.0   0.00  
  27    1:10    0.0    57   82.4     5    147.1     6.6    999.0   0.00  
  27    1:20    0.0    57   83.1     4    149.0     6.0    999.0   0.00  
  27    1:30    0.0    57   79.9     4    137.7     5.4    999.0   0.00  
  27    1:40    0.0    57   80.3     3    133.9     5.4    999.0   0.00  
  27    1:50    0.0    57   78.7     4    111.7     6.0    999.0   0.00  
  27    2:00    0.0    58   78.1     4    112.4     6.0    999.0   0.00  
  27    2:10    0.0    57   79.5     4    109.3     6.0    999.0   0.00  
  27    2:20    0.0    57   75.9     5    143.2     7.2    999.0   0.00  
  27    2:30    0.0    58   73.4     5    161.1     6.6    999.0   0.00  
  27    2:40    0.0    58   75.3     4    151.2     6.0    999.0   0.00  
  27    2:50    0.0    57   78.4     2    146.4     4.2    999.0   0.00  
  27    3:00    0.0    57   79.1     3    150.6     4.8    999.0   0.00  
  27    3:10    0.0    57   78.2     4    163.9     4.8    999.0   0.00  
  27    3:20    0.0    57   77.2     2    144.8     4.2    999.0   0.00  
  27    3:30    0.0    57   75.2     3    164.3     4.2    999.0   0.00  
  27    3:40    0.0    56   75.0     1    178.2     1.8    999.0   0.00  
  27    3:50    0.0    56   74.3     1    154.9     1.8    999.0   0.00  
  27    4:00    0.0    57   71.7     1    124.4     0.6    999.0   0.00  
  27    4:10    0.0    58   68.4     1    344.1     1.8    999.0   0.00  
  27    4:20    0.0    58   67.9     1    226.8     3.0    999.0   0.00  
  27    4:30    0.0    56   74.2     1    164.6     2.4    999.0   0.00  
  27    4:40    0.0    55   76.5     1    172.7     2.4    999.0   0.00  
  27    4:50    0.0    56   74.4     1    141.4     1.8    999.0   0.00  
  27    5:00    0.0    56   74.0     1    167.1     1.8    999.0   0.00  
  27    5:10    0.0    57   71.6     1    334.4     1.8    999.0   0.00  
  27    5:20    0.0    58   67.7     3    314.7     4.2    999.0   0.00  
  27    5:30    0.0    58   69.2     2    271.9     3.6    999.0   0.00  
  27    5:40    0.0    57   73.5     1    210.9     1.8    999.0   0.00  
  27    5:50    0.0    55   79.5     3    149.0     3.6    999.0   0.00  
  27    6:00    0.0    55   78.8     2    149.2     3.0    999.0   0.00  
  27    6:10    0.0    56   76.9     1    267.9     1.8    999.0   0.00  
  27    6:20    0.0    56   74.4     1    140.9     3.0    999.0   0.00  
  27    6:30    0.0    54   79.4     3    149.0     3.6    999.0   0.00  
  27    6:40    0.0    55   79.0     2    142.8     4.2    999.0   0.00  
  27    6:50    3.0    55   82.1     2    123.1     4.2    999.0   0.00  
  27    7:00    3.0    55   81.7     2    165.7     3.6    999.0   0.00  
  27    7:10    8.0    56   79.2     2    191.3     3.6    999.0   0.00  
  27    7:20   11.0    55   81.2     1    132.9     2.4    999.0   0.00  
  27    7:30   42.0    57   78.6     2    119.0     3.0    999.0   0.00  
  27    7:40   68.0    56   80.4     3    147.7     3.6    999.0   0.00  
  27    7:50   95.0    58   77.2     2    142.1     3.6    999.0   0.00  
  27    8:00  118.0    60   74.7     2    113.4     4.2    999.0   0.00  
  27    8:10  142.0    60   78.6     3    112.7     4.2    999.0   0.00  
  27    8:20  167.0    61   76.8     2    103.6     3.0    999.0   0.00  
  27    8:30  191.0    62   71.0     1     78.6     1.8    999.0   0.00  
  27    8:40  215.0    62   74.8     2     44.8     4.2    999.0   0.00  
  27    8:50  238.0    61   79.0     2     64.8     4.2    999.0   0.00  
  27    9:00  262.0    62   77.4     2     75.7     4.8    999.0   0.00  
  27    9:10  284.0    62   78.7     3     90.5     4.8    999.0   0.00  
  27    9:20  306.0    62   78.7     3     76.9     5.4    999.0   0.00  
  27    9:30  328.0    63   77.4     3     61.6     5.4    999.0   0.00  
  27    9:40  348.0    62   78.4     4     80.7     6.6    999.0   0.00  
  27    9:50  366.0    62   78.5     5     59.1     7.2    999.0   0.00  
  27   10:00  384.0    62   80.2     4     80.2     6.0    999.0   0.00  
  27   10:10  401.0    62   79.2     4     53.3     6.6    999.0   0.00  
  27   10:20  417.0    63   78.6     4     83.1     6.6    999.0   0.00  
  27   10:30  433.0    63   75.7     4     57.6     6.0    999.0   0.00  
  27   10:40  448.0    63   73.8     3     38.6     5.4    999.0   0.00  
  27   10:50  460.0    63   68.9     3      0.1     4.8    999.0   0.00  
  27   11:00  471.0    64   68.0     3    337.6     6.0    999.0   0.00  
  27   11:10  480.0    64   64.0     3    332.1     6.0    999.0   0.00  
  27   11:20  488.0    64   66.7     5    336.5     6.6    999.0   0.00  
  27   11:30  495.0    64   67.3     4    339.5     6.0    999.0   0.00  
  27   11:40  503.0    63   67.6     3    323.6     6.0    999.0   0.00  
  27   11:50  507.0    64   66.7     2    341.8     4.8    999.0   0.00  
  27   12:00  509.0    64   66.3     3    337.7     5.4    999.0   0.00  
  27   12:10  498.0    64   68.3     4    338.8     5.4    999.0   0.00  
  27   12:20  513.0    64   68.0     2    322.4     4.8    999.0   0.00  
  27   12:30  515.0    66   64.2     2    323.6     3.6    999.0   0.00  
  27   12:40  433.0    65   60.8     2    326.1     5.4    999.0   0.00  
  27   12:50  459.0    65   61.3     3    304.6     5.4    999.0   0.00  
  27   13:00  503.0    66   61.6     3    328.1     5.4    999.0   0.00  
  27   13:10  478.0    66   60.0     2    352.1     4.2    999.0   0.00  
  27   13:20  482.0    66   61.6     3    334.1     4.8    999.0   0.00  
  27   13:30  469.0    66   65.7     4    324.7     5.4    999.0   0.00  
  27   13:40  456.0    64   70.4     5    329.7     8.4    999.0   0.00  
  27   13:50  443.0    66   66.0     6    309.4     8.4    999.0   0.00  
  27   14:00  429.0    66   69.5     5    304.2     8.4    999.0   0.00  
  27   14:10  415.0    65   65.8     6    306.5     9.0    999.0   0.00  
  27   14:20  398.0    65   66.8     7    300.6     9.6    999.0   0.00  
  27   14:30  382.0    64   68.4     8    296.0    11.3    999.0   0.00  
  27   14:40  365.0    64   70.1     6    297.4    10.8    999.0   0.00  
  27   14:50  348.0    65   70.2     6    298.9     9.6    999.0   0.00  
  27   15:00  315.0    64   69.2     6    300.2    10.2    999.0   0.00  
  27   15:10  200.0    64   68.8     7    297.3    10.8    999.0   0.00  
  27   15:20  230.0    63   61.3     6    297.2    10.2    999.0   0.00  
  27   15:30   86.0    63   57.9     7    278.1     9.6    999.0   0.00  
  27   15:40  239.0    63   57.8     9    275.2    12.5    999.0   0.00  
  27   15:50  210.0    64   55.4     7    284.7    11.9    999.0   0.00  
  27   16:00   92.0    63   57.0     8    283.6    11.3    999.0   0.00  
  27   16:10  171.0    63   59.1     7    270.2     9.6    999.0   0.00  
  27   16:20  148.0    63   59.2     6    270.7    10.2    999.0   0.00  
  27   16:30   29.0    62   60.2     6    271.4     9.6    999.0   0.00  
  27   16:40   18.0    62   61.8     5    269.1     9.0    999.0   0.00  
  27   16:50   16.0    61   64.8     4    276.8     6.6    999.0   0.00  
  27   17:00   12.0    61   65.4     5    279.9     7.8    999.0   0.00  
  27   17:10    9.0    60   65.3     6    273.3     9.0    999.0   0.00  
  27   17:20    6.0    60   64.4     7    265.8    10.2    999.0   0.00  
  27   17:30    3.0    60   65.1     5    271.5     9.0    999.0   0.00  
  27   17:40    1.0    60   66.2     5    266.6    10.8    999.0   0.00  
  27   17:50    0.0    60   64.6     8    271.0    12.5    999.0   0.00  
  27   18:00    0.0    60   63.3     8    274.4    11.3    999.0   0.00  
  27   18:10    0.0    60   61.5     7    270.1    11.3    999.0   0.00  
  27   18:20    0.0    60   61.6     8    269.6    12.5    999.0   0.00  
  27   18:30    0.0    60   62.8     7    272.5    14.9    999.0   0.00  
  27   18:40    0.0    60   64.6     9    268.8    12.5    999.0   0.00  
  27   18:50    0.0    60   66.5    10    267.7    16.1    999.0   0.00  
  27   19:00    0.0    60   69.7     9    271.2    12.5    999.0   0.00  
  27   19:10    0.0    60   73.0     9    271.0    13.7    999.0   0.00  
  27   19:20    0.0    60   74.1     9    267.3    15.5    999.0   0.00  
  27   19:30    0.0    60   76.6    10    266.3    13.7    999.0   0.00  
  27   19:40    0.0    60   76.0    10    267.6    14.9    999.0   0.00  
  27   19:50    0.0    59   77.0     9    270.9    11.9    999.0   0.00  
  27   20:00    0.0    59   77.5     9    266.7    12.5    999.0   0.00  
  27   20:10    0.0    59   76.1     8    259.1    11.3    999.0   0.00  
  27   20:20    0.0    59   74.8     8    262.6    11.9    999.0   0.00  
  27   20:30    0.0    59   74.8     9    261.9    12.5    999.0   0.00  
  27   20:40    0.0    59   75.6     7    263.9    11.3    999.0   0.00  
  27   20:50    0.0    59   75.1     8    268.2    12.5    999.0   0.00  
  27   21:00    0.0    59   76.1     8    266.0    11.9    999.0   0.00  
  27   21:10    0.0    59   77.5     6    259.0     9.6    999.0   0.00  
  27   21:20    0.0    59   78.2     7    258.4    11.3    999.0   0.00  
  27   21:30    0.0    59   77.7     8    262.0    11.9    999.0   0.00  
  27   21:40    0.0    59   78.7     8    264.4    12.5    999.0   0.00  
  27   21:50    0.0    59   81.7     7    266.1    10.2    999.0   0.00  
  27   22:00    0.0    58   83.0     6    270.1     9.6    999.0   0.00  
  27   22:10    0.0    58   84.2     6    268.1    10.2    999.0   0.00  
  27   22:20    0.0    58   84.8     6    266.3     8.4    999.0   0.00  
  27   22:30    0.0    58   84.7     6    265.4     9.0    999.0   0.00  
  27   22:40    0.0    58   85.0     6    261.5     7.8    999.0   0.00  
  27   22:50    0.0    58   85.1     6    262.1     7.8    999.0   0.00  

Return to Parsons Landing graphs page.


Western Regional Climate Center,wrcc@dri.edu